"Time","Temp","Dewpoint","Humidity","Pressure","Direction","Speed","Gust","Precip","PrecipRate"
"00:04:59","62.5","56.9","82","30.01","192","1.6","4","0.00","0.00"
"00:09:58","62.4","56.9","82.4","30.01","191","1.7","5","0.00","0.00"
"00:14:57","62.2","56.6","82","30.01","209","1.1","3.5","0.00","0.00"
"00:19:56","62.1","56.7","82.4","30.01","208","1.2","3.5","0.00","0.00"
"00:24:58","62","56.8","82.8","30.01","183","1.7","3.5","0.00","0.00"
"00:29:56","61.9","56.3","82","30.01","175","1.2","3.5","0.00","0.00"
"00:34:58","61.7","56.1","82","30.01","175","1.8","4","0.00","0.00"
"00:39:58","61.6","56","82","30.01","176","1.9","4","0.00","0.00"
"00:44:56","61.7","56.2","82.2","30.01","179","2.4","6","0.00","0.00"
"00:49:58","61.9","56.3","82","30.00","186","2.7","5.8","0.00","0.00"
"00:54:56","62","56.4","82","30.00","198","3.8","7","0.00","0.00"
"00:59:58","62","56.2","81.3","30.01","201","5.2","10.4","0.00","0.00"
"01:04:59","62.2","56.3","81","30.01","190","5.4","12","0.00","0.00"
"01:09:57","62.5","56.2","80","30.01","188","5.5","10.4","0.00","0.00"
"01:14:59","62.6","56.2","79.4","30.01","187","5.9","11.5","0.00","0.00"
"01:19:57","62.8","56.2","79","29.99","194","4.5","12","0.00","0.00"
"01:24:59","62.8","56.2","79","29.99","202","5.4","13","0.00","0.00"
"01:29:57","62.9","56.3","79","30.00","196","5.2","11","0.00","0.00"
"01:34:56","62.9","56.1","78.6","30.00","204","4.5","11.5","0.00","0.00"
"01:39:57","62.7","56.1","79","30.00","196","4.3","10.4","0.00","0.00"
"01:44:56","62.7","56.1","78.8","30.00","194","6","12","0.00","0.00"
"01:49:58","62.7","56.1","79","30.00","194","4.1","11.5","0.00","0.00"
"01:54:56","62.6","56","79","30.00","183","4.8","12","0.00","0.00"
"01:59:58","62.6","56","79","30.01","191","5.5","12","0.00","0.00"
"02:04:55","62.5","55.9","79","30.01","196","5.6","12","0.00","0.00"
"02:09:57","62.6","55.8","78.6","30.01","189","4.6","10.4","0.00","0.00"
"02:14:56","62.6","55.6","78","30.01","192","5.3","12","0.00","0.00"
"02:19:58","62.6","55.6","78","30.00","180","3.2","9.2","0.00","0.00"
"02:24:56","62.6","55.6","78","30.00","191","3.2","7","0.00","0.00"
"02:29:59","62.5","55.5","78","30.00","194","2.6","6.9","0.00","0.00"
"02:34:57","62.4","55.4","78","30.00","208","2.3","4","0.00","0.00"
"02:39:56","62.2","55.3","78","30.00","195","2.8","5","0.00","0.00"
"02:44:58","62","55.4","78.9","30.00","189","2.9","6","0.00","0.00"
"02:49:56","62","55.4","79","30.00","184","2.6","5.8","0.00","0.00"
"02:54:59","61.9","55.3","79","30.00","179","2.3","5","0.00","0.00"
"02:59:57","61.9","55.3","79","30.00","164","2","5","0.00","0.00"
"03:04:59","61.8","55.2","79","30.00","191","3.4","6","0.00","0.00"
"03:09:57","61.8","55.2","79","30.00","190","3.3","6.9","0.00","0.00"
"03:14:59","61.8","55.2","79","30.00","170","2.5","5.8","0.00","0.00"
"03:19:58","61.9","55.3","79","29.99","177","3.3","10.4","0.00","0.00"
"03:24:56","61.8","55.2","79","29.99","180","3.6","9.2","0.00","0.00"
"03:29:58","61.8","55.2","79","29.99","189","4.3","9","0.00","0.00"
"03:34:56","61.7","55.1","79","29.99","196","3.7","8.1","0.00","0.00"
"03:39:59","61.7","55.1","79","29.99","193","4.1","11.5","0.00","0.00"
"03:44:58","61.7","55.1","79","30.00","192","3.6","6.9","0.00","0.00"
"03:49:56","61.8","55.2","79","30.00","196","3.3","6","0.00","0.00"
"03:54:58","61.7","55.1","79","30.00","198","3.3","6","0.00","0.00"
"03:59:56","61.7","55.1","79","30.01","180","3.4","7","0.00","0.00"
"04:04:58","61.6","55.3","79.7","30.01","206","3.7","7","0.00","0.00"
"04:09:56","61.7","55.3","79.6","30.01","198","3.3","7","0.00","0.00"
"04:14:59","61.7","55.5","80","30.01","194","2.9","6","0.00","0.00"
"04:19:57","61.5","55.3","80","30.01","184","2.6","9","0.00","0.00"
"04:24:59","61.4","55.2","80","30.01","182","3.1","7","0.00","0.00"
"04:29:57","61.4","55.4","80.7","30.01","186","3.6","8","0.00","0.00"
"04:34:56","61.4","55.4","80.8","30.01","184","4.9","10.4","0.00","0.00"
"04:39:58","61.4","55.5","81","30.01","182","4.8","10.4","0.00","0.00"
"04:44:56","61.3","55.4","81","30.01","181","3.9","10.4","0.00","0.00"
"04:49:59","61.3","55.3","81","30.01","185","3.6","10.4","0.00","0.00"
"04:54:57","61.2","55.3","81","30.01","183","4","8.1","0.00","0.00"
"04:59:59","61.1","55.5","81.9","30.01","194","3.7","8.1","0.00","0.00"
"05:04:56","60.9","55.4","82","30.01","178","3.1","10.4","0.00","0.00"
"05:09:58","60.9","55.4","82","30.01","174","3.1","7","0.00","0.00"
"05:14:57","60.8","55.3","82","30.01","190","3.5","7","0.00","0.00"
"05:19:59","60.8","55.5","83","30.01","183","3.8","9.2","0.00","0.00"
"05:24:57","60.6","55.4","83","30.01","194","5.5","11.5","0.00","0.00"
"05:29:59","60.6","55.4","83","30.02","198","4.9","10.4","0.00","0.00"
"05:34:57","60.5","55.3","83","30.02","191","3.7","9","0.00","0.00"
"05:39:56","60.5","55.6","84","30.02","198","3.9","9.2","0.00","0.00"
"05:44:58","60.5","55.5","83.8","30.02","190","3.5","10.4","0.00","0.00"
"05:49:56","60.4","55.4","83.8","30.02","197","3.2","8","0.00","0.00"
"05:54:58","60.3","55.4","84","30.02","184","3.4","8.1","0.00","0.00"
"05:59:57","60.2","55.3","84","30.03","193","3.7","9","0.00","0.00"
"06:04:58","60.1","55.2","84","30.03","189","3.3","9.2","0.00","0.00"
"06:09:57","60.1","55.3","84.2","30.03","189","4.2","11","0.00","0.00"
"06:14:56","60.1","55.2","84","30.03","193","4.2","11.5","0.00","0.00"
"06:19:58","60.1","55.2","84","30.03","197","4.1","10.4","0.00","0.00"
"06:24:56","60","55.2","84","30.03","192","4.3","13","0.00","0.00"
"06:29:58","60","55.2","84","30.03","190","4.4","11.5","0.00","0.00"
"06:34:56","60.1","55.2","84","30.03","190","4.5","9.2","0.00","0.00"
"06:39:59","60.1","55.2","84","30.03","186","4.5","10","0.00","0.00"
"06:44:58","60.1","55.2","84","30.03","180","3.7","10.4","0.00","0.00"
"06:49:56","60.1","55.2","84","30.02","199","3.8","8","0.00","0.00"
"06:54:58","60.1","55.4","84.7","30.02","196","4.5","11.5","0.00","0.00"
"06:59:57","60","55.5","85","30.02","190","4.1","10.4","0.00","0.00"
"07:04:58","60","55.5","85","30.02","192","4.7","11.5","0.00","0.00"
"07:09:56","59.9","55.4","85","30.02","190","4.6","10","0.00","0.00"
"07:14:59","59.9","55.4","85","30.04","194","3.7","10.4","0.00","0.00"
"07:19:57","59.8","55.3","85","30.04","198","5.4","11","0.00","0.00"
"07:24:56","59.8","55.3","85","30.04","190","4.6","7","0.00","0.00"
"07:29:57","59.7","55.2","85","30.04","184","3.7","7","0.00","0.00"
"07:34:59","59.7","55.5","86","30.04","200","4","9.2","0.00","0.00"
"07:39:58","59.7","55.5","86","30.04","185","4.4","9.2","0.00","0.00"
"07:44:56","59.7","55.5","86","30.04","198","5","10.4","0.00","0.00"
"07:49:58","59.7","55.5","86","30.04","195","4.9","11.5","0.00","0.00"
"07:54:59","59.7","55.3","85.5","30.04","202","5.4","11.5","0.00","0.00"
"07:59:57","59.7","55.2","85","30.05","196","5.3","11.5","0.00","0.00"
"08:04:59","59.7","55.2","85","30.05","196","4.4","9.2","0.00","0.00"
"08:09:56","59.7","55.2","85","30.05","196","4.7","10.4","0.00","0.00"
"08:14:59","59.8","55.3","85","30.06","191","4.2","9.2","0.00","0.00"
"08:19:57","59.8","55.3","85","30.06","193","4.7","12","0.00","0.00"
"08:24:58","59.8","55.3","85","30.06","197","5.3","11.5","0.00","0.00"
"08:29:56","59.8","55.3","85","30.06","190","5.7","10.4","0.00","0.00"
"08:34:58","59.9","55.4","85","30.06","202","5.7","12","0.00","0.00"
"08:39:57","60","55.5","85","30.06","192","5.8","12","0.00","0.00"
"08:44:58","60","55.5","85","30.06","192","5.9","11.5","0.00","0.00"
"08:49:59","60.1","55.6","85","30.05","197","5.3","12","0.00","0.00"
"08:54:57","60.2","55.7","85","30.05","200","4.6","12","0.00","0.00"
"08:59:59","60.4","55.9","85","30.05","193","4.2","9.2","0.00","0.00"
"09:04:56","60.5","55.8","84.5","30.05","203","5.5","12","0.00","0.00"
"09:09:58","60.7","55.8","84","30.05","199","5.9","11.5","0.00","0.00"
"09:14:57","60.7","55.8","84","30.05","202","5.5","11.5","0.00","0.00"
"09:19:59","60.7","55.8","84","30.05","198","5.4","12","0.00","0.00"
"09:24:57","60.7","55.8","84","30.05","196","4.3","9","0.00","0.00"
"09:29:59","60.8","55.9","84","30.05","196","4.5","12","0.00","0.00"
"09:34:57","60.9","56","84","30.05","201","5.2","11.5","0.00","0.00"
"09:39:59","60.9","56","84","30.05","208","5.5","13","0.00","0.00"
"09:44:57","61","56.1","84","30.05","198","4.9","12","0.00","0.00"
"09:49:59","61.1","56.1","83.9","30.05","204","4.4","11","0.00","0.00"
"09:54:57","61.2","56.2","83.6","30.05","204","4.2","11.5","0.00","0.00"
"09:59:59","61.4","56.5","83.8","30.05","205","3.5","7","0.00","0.00"
"10:04:52","61.8","56.6","83.1","30.05","191","4.1","7","0.00","0.00"
"10:09:58","62.1","56.6","82.3","30.05","206","4.2","10.4","0.00","0.00"
"10:14:56","62.5","56.8","81.9","30.05","219","5","11","0.00","0.00"
"10:19:58","62.7","56.8","81","30.05","201","5","11.5","0.00","0.00"
"10:24:56","62.8","56.8","80.7","30.05","195","4.9","10.4","0.00","0.00"
"10:29:58","62.9","56.6","80.1","30.06","208","5.7","12","0.00","0.00"
"10:34:56","62.9","56.7","80.2","30.06","196","5.2","12","0.00","0.00"
"10:39:59","63.1","56.7","79.8","30.06","224","5","11.5","0.00","0.00"
"10:44:57","63.2","56.9","79.8","30.06","216","5","9.2","0.00","0.00"
"10:49:59","63.4","56.9","79.3","30.06","208","6.5","14","0.00","0.00"
"10:54:57","63.6","57.1","79.2","30.06","211","5.2","13","0.00","0.00"
"10:59:58","63.9","57.4","79.3","30.06","196","4.1","7","0.00","0.00"
"11:04:59","64.3","57.5","78.4","30.06","199","4.3","9.2","0.00","0.00"
"11:09:57","64.7","57.3","76.9","30.06","193","6.6","13","0.00","0.00"
"11:14:56","64.9","57.6","77.1","30.06","199","5.4","12","0.00","0.00"
"11:19:58","65.2","57.5","76.3","30.06","191","4.8","11.5","0.00","0.00"
"11:24:56","65.3","57.4","75.8","30.06","195","4.8","10.4","0.00","0.00"
"11:29:58","65.4","57.5","75.5","30.06","185","5.3","10.4","0.00","0.00"
"11:34:56","65.5","57.6","75.4","30.06","188","4.2","10.4","0.00","0.00"
"11:39:59","65.8","57.8","75.6","30.06","207","3.3","7","0.00","0.00"
"11:44:57","66.1","57.9","74.8","30.06","207","3.8","7","0.00","0.00"
"11:49:59","66.4","57.9","74.1","30.06","193","3.9","14","0.00","0.00"
"11:54:57","66.5","57.7","73.2","30.06","194","5.1","13.8","0.00","0.00"
"11:59:59","66.7","57.8","73","30.06","201","4.4","10.4","0.00","0.00"
"12:04:54","67.2","58.4","73.5","30.06","204","4.1","7","0.00","0.00"
"12:09:56","68.3","59.5","73.5","30.06","205","4.9","10.4","0.00","0.00"
"12:14:58","69.9","60","71","30.06","204","4.2","9.2","0.00","0.00"
"12:19:56","70.9","59.5","67.3","30.05","220","6.7","11.5","0.00","0.00"
"12:24:58","71.3","59.8","67.1","30.05","211","4.2","11.5","0.00","0.00"
"12:29:56","72","60","65.9","30.05","220","4.6","9.2","0.00","0.00"
"12:34:58","72.4","59.2","63.3","30.05","216","5","11.5","0.00","0.00"
"12:39:57","72","59","63.6","30.05","200","4.6","11.5","0.00","0.00"
"12:44:59","71.8","59","64.1","30.05","201","4.2","9.2","0.00","0.00"
"12:49:57","71.4","58.7","64.3","30.04","203","4.2","10.4","0.00","0.00"
"12:54:59","71.2","58.6","64.3","30.04","197","3.9","9.2","0.00","0.00"
"12:59:57","71.6","58.6","63.7","30.04","198","3.6","8.1","0.00","0.00"
"13:04:51","72.3","57","58.7","30.04","245","2.6","5","0.00","0.00"
"13:09:57","73","55.4","54.1","30.04","284","2.5","12","0.00","0.00"
"13:14:59","73.6","55.5","53.3","30.04","266","4","9.2","0.00","0.00"
"13:19:57","74.1","55.8","52.8","30.03","231","5.3","12","0.00","0.00"
"13:24:59","74.6","55.4","51.4","30.03","237","4.8","11.5","0.00","0.00"
"13:29:57","75","55.9","51.4","30.03","221","3.1","9","0.00","0.00"
"13:34:59","75.5","55.4","49.8","30.02","215","4.5","9.2","0.00","0.00"
"13:39:58","75.6","54.8","48.5","30.02","237","2.9","7","0.00","0.00"
"13:44:56","75.9","55.5","49.2","30.02","288","3.8","8.1","0.00","0.00"
"13:49:58","76.5","52.9","44","30.02","292","2.9","10","0.00","0.00"
"13:54:59","76.5","51.5","41.7","30.02","294","5.2","14","0.00","0.00"
"13:59:57","76.1","50.3","40.5","30.02","319","6.4","13.8","0.00","0.00"
"14:04:58","75.8","50.2","40.6","30.01","296","4.2","11","0.00","0.00"
"14:09:57","76.2","49.7","39.3","30.01","326","6.5","16.1","0.00","0.00"
"14:14:56","76.5","49.5","38.7","30.01","316","4","13","0.00","0.00"
"14:19:57","76.5","49.1","38.2","30.00","302","3.1","10.4","0.00","0.00"
"14:24:59","75.7","49","39.1","30.00","325","5","15","0.00","0.00"
"14:29:57","74.8","49","40.2","30.01","334","5.9","12","0.00","0.00"
"14:34:59","73.9","50","43.1","30.01","337","7","14","0.00","0.00"
"14:39:58","73.8","50.9","44.7","30.01","343","6.8","13","0.00","0.00"
"14:44:56","73.9","50.6","44","30.01","321","6","14","0.00","0.00"
"14:49:58","73.8","50.5","44","30.01","302","7.7","16.1","0.00","0.00"
"14:54:56","73.4","50.2","44.1","30.01","330","8.8","18.4","0.00","0.00"
"14:59:58","73.3","50.8","45.2","30.02","317","6.2","16.1","0.00","0.00"
"15:04:58","73.1","50.3","44.7","30.02","327","9.1","18","0.00","0.00"
"15:09:56","72.5","50.3","45.7","30.02","327","7.7","18.4","0.00","0.00"
"15:14:59","72","50.1","45.9","30.04","338","8.6","21","0.00","0.00"
"15:19:56","71.9","50.2","46.3","30.04","324","8.1","20.7","0.00","0.00"
"15:24:58","71.9","50.5","46.7","30.04","323","6.7","21","0.00","0.00"
"15:29:56","72.1","49.8","45.3","30.05","327","6.9","20.7","0.00","0.00"
"15:34:58","72","49.8","45.4","30.05","320","5.7","15","0.00","0.00"
"15:39:56","72","49.5","44.9","30.05","323","5.6","14","0.00","0.00"
"15:44:58","72","49.5","45","30.05","323","4.4","12.7","0.00","0.00"
"15:49:59","72.2","49.3","44.3","30.04","303","5.7","14","0.00","0.00"
"15:54:57","72.1","48.8","43.6","30.04","309","6.5","17.3","0.00","0.00"
"15:59:59","71.7","48.6","44","30.05","329","7.4","13","0.00","0.00"
"16:04:56","71.5","48.5","44.2","30.05","332","6.5","16.1","0.00","0.00"
"16:09:58","71.3","48.3","44","30.05","339","7","16","0.00","0.00"
"16:14:57","71","48.1","44.1","30.05","321","5.8","16.1","0.00","0.00"
"16:19:59","70.8","48.2","44.7","30.05","331","6","15","0.00","0.00"
"16:24:57","70.2","47.7","44.8","30.05","324","6.6","18.4","0.00","0.00"
"16:29:58","69.5","47.3","45.2","30.06","335","7.6","17.3","0.00","0.00"
"16:34:58","69.1","47.2","45.7","30.06","336","4.7","16.1","0.00","0.00"
"16:39:56","69.1","47.3","45.7","30.06","325","4.5","11.5","0.00","0.00"
"16:44:58","68.8","46.9","45.4","30.06","331","5.8","17.3","0.00","0.00"
"16:49:56","68.3","46.8","46.2","30.06","333","4.2","11.5","0.00","0.00"
"16:54:57","67.8","45.9","45.5","30.06","336","6.5","18.4","0.00","0.00"
"16:59:59","67.3","45.7","45.9","30.07","335","5.2","12","0.00","0.00"
"17:04:56","66.8","45","45.3","30.07","340","8.2","20","0.00","0.00"
"17:09:58","66","43.9","44.6","30.07","332","5.4","14","0.00","0.00"
"17:14:56","65.4","42.3","43","30.08","342","6.4","15","0.00","0.00"
"17:19:58","65","41.9","43","30.08","345","8.6","18.4","0.00","0.00"
"17:24:59","64.5","41.7","43.3","30.08","307","5.3","16.1","0.00","0.00"
"17:29:57","64.1","41.4","43.5","30.10","315","5.2","11.5","0.00","0.00"
"17:34:59","63.7","40.9","43.2","30.10","322","7.6","17.3","0.00","0.00"
"17:39:58","63.4","40.6","43.2","30.10","314","7.3","16.1","0.00","0.00"
"17:44:56","63.1","40.7","43.8","30.11","335","7.7","17.3","0.00","0.00"
"17:49:58","62.8","40.7","44.3","30.11","331","8","20","0.00","0.00"
"17:54:56","62.2","40.4","44.6","30.11","344","7.8","22","0.00","0.00"
"17:59:58","60.9","39.9","45.8","30.12","326","6.9","18.4","0.00","0.00"
"18:04:56","59.9","39.5","46.8","30.12","343","5.7","16","0.00","0.00"
"18:09:58","58.7","38.5","47","30.12","21","6.7","19.6","0.00","0.00"
"18:14:56","57.6","38.1","48.2","30.16","347","5","14","0.00","0.00"
"18:19:58","56.7","37.8","49.1","30.16","333","5.1","14","0.00","0.00"
"18:24:57","55.8","37.2","49.6","30.16","342","8.3","20","0.00","0.00"
"18:29:59","55","37.1","50.8","30.16","341","7.9","15","0.00","0.00"
"18:34:57","54.3","36.6","51","30.16","331","9.1","16.1","0.00","0.00"
"18:39:56","53.9","36.6","51.9","30.16","336","7.7","22","0.00","0.00"
"18:44:58","53.5","36.2","51.8","30.18","337","9","18.4","0.00","0.00"
"18:49:56","53.1","35.8","51.7","30.18","348","7.6","20","0.00","0.00"
"18:54:58","52.7","35.4","51.8","30.18","347","7.2","19.6","0.00","0.00"
"18:59:56","52.2","35.1","52","30.20","357","5.8","16.1","0.00","0.00"
"19:04:57","51.7","35","52.8","30.20","4","5.2","17","0.00","0.00"
"19:09:56","51.3","34.9","53.4","30.20","347","4.1","14","0.00","0.00"
"19:14:58","50.9","34.8","54","30.21","343","4.3","14","0.00","0.00"
"19:19:56","50.5","34.6","54.2","30.21","334","5.2","15","0.00","0.00"
"19:24:58","50.2","34.5","54.7","30.21","337","5.7","18.4","0.00","0.00"
"19:29:57","49.9","34.4","55","30.24","337","3.1","9.2","0.00","0.00"
"19:34:59","49.6","34.1","55","30.24","342","1.7","5","0.00","0.00"
"19:39:58","49.2","33.7","55","30.24","359","2.4","10.4","0.00","0.00"
"19:44:56","48.9","33.6","55.4","30.25","343","3","11","0.00","0.00"
"19:49:58","48.5","33.5","56","30.25","349","4.4","13","0.00","0.00"
"19:54:56","48.2","33.3","56.3","30.25","353","8.1","19.6","0.00","0.00"
"19:59:58","47.8","33.4","57.1","30.25","349","6.1","14","0.00","0.00"
"20:04:59","47.3","33.3","58","30.25","357","5.9","13.8","0.00","0.00"
"20:09:57","46.8","33","58.4","30.25","348","4.4","15","0.00","0.00"
"20:14:59","46.4","32.9","59.3","30.27","329","1.8","7","0.00","0.00"
"20:19:57","46","32.9","60","30.27","292","4.4","12","0.00","0.00"
"20:24:59","45.4","32.7","60.9","30.27","356","5","12","0.00","0.00"
"20:29:57","45","32.6","61.7","30.28","351","4.7","11.5","0.00","0.00"
"20:34:59","44.6","32.4","62","30.28","358","4.9","14","0.00","0.00"
"20:39:58","44.2","32.4","63","30.28","0","3.2","9.2","0.00","0.00"
"20:44:56","43.9","32.2","63.3","30.29","356","5.6","15","0.00","0.00"
"20:49:58","43.6","32.2","64","30.29","345","3.9","13","0.00","0.00"
"20:54:56","43.4","32.1","64.4","30.29","340","6.1","19","0.00","0.00"
"20:59:58","43.2","32.2","65","30.29","332","4.6","11.5","0.00","0.00"
"21:04:59","43","32","65","30.28","340","4.5","11.5","0.00","0.00"
"21:09:57","42.8","31.8","65","30.28","341","2.5","9.2","0.00","0.00"
"21:14:59","42.5","31.6","65","30.29","354","4.6","17.3","0.00","0.00"
"21:19:57","42.4","31.8","65.9","30.29","337","5.6","17.3","0.00","0.00"
"21:24:59","42.2","31.7","66","30.29","347","3.4","11.5","0.00","0.00"
"21:29:57","42.1","31.5","66","30.29","342","3.6","11.5","0.00","0.00"
"21:34:59","41.8","31.3","66","30.29","325","1.8","5","0.00","0.00"
"21:39:58","41.5","31.2","66.5","30.29","339","5.9","16","0.00","0.00"
"21:44:59","41.3","31.2","66.8","30.29","337","7","16.1","0.00","0.00"
"21:49:57","41.2","31.1","67","30.29","340","4.5","13","0.00","0.00"
"21:54:56","41.1","31","67","30.29","339","3.3","13","0.00","0.00"
"21:59:57","41","30.9","67","30.30","343","7.1","18.4","0.00","0.00"
"22:04:59","40.9","30.8","67","30.30","352","3.9","14","0.00","0.00"
"22:09:57","40.9","30.8","67","30.30","339","4","11.5","0.00","0.00"
"22:14:59","40.9","30.8","67","30.31","4","2.5","10.4","0.00","0.00"
"22:19:57","40.8","30.7","67","30.31","326","1.8","6","0.00","0.00"
"22:24:59","40.8","30.7","67","30.31","353","2.7","7","0.00","0.00"
"22:29:57","40.7","30.6","67","30.31","340","3.7","11.5","0.00","0.00"
"22:34:59","40.7","30.6","67","30.31","338","2.7","7","0.00","0.00"
"22:39:58","40.6","30.5","67","30.31","4","3","9.2","0.00","0.00"
"22:42:58","40.5","30.3","66.5","30.31","359","3.6","9.2","0.00","0.00"
"22:49:57","40.3","29.9","66.3","30.33","338","4","13","0.00","0.00"
"22:54:57","40.2","29.9","66.3","30.33","352","3.6","11.5","0.00","0.00"
"22:59:57","40.1","29.9","66.8","30.34","343","4.5","11.5","0.00","0.00"
"23:04:55","40","29.9","67","30.34","337","3.9","9.2","0.00","0.00"
"23:09:56","39.9","29.8","67","30.34","341","4","9.2","0.00","0.00"
"23:14:57","39.8","29.6","66.7","30.34","336","4","9.2","0.00","0.00"
"23:19:57","39.8","29.4","66.2","30.34","341","2.2","11","0.00","0.00"
"23:24:56","39.7","29.3","66","30.34","331","4","11.5","0.00","0.00"
"23:29:56","39.6","29.2","66","30.35","346","4","12","0.00","0.00"
"23:34:59","39.6","29","65.4","30.35","338","5.1","11.5","0.00","0.00"
"23:39:56","39.6","28.8","65","30.35","341","3.4","9.2","0.00","0.00"
"23:44:56","39.5","28.8","65.2","30.36","10","3.2","10.4","0.00","0.00"
"23:49:56","39.5","29","65.9","30.36","33","2.5","12","0.00","0.00"
"23:54:56","39.4","29","66","30.36","27","1.3","5","0.00","0.00"
"23:59:56","39.3","29","66.3","30.36","6","1.1","5","0.00","0.00"
